Погода в Фернанду-ди-Норонья

Бразилия     3°51′26″S   32°25′35″W
темп.,
°C
ветер,
м/с
пор.,
м/с
влажн.,
%
обл.,
%
осадки,
мм/ч
давл.,
гПа
погр.,
м
24 июля, сб
сб2401:00+27ююв997315 0.1 10151136
04:00+27юв910725 0.3 10141142
07:00+27юв1010730 0.1 10141105
10:00+27юв910700 0.1 10161135
13:00+27юв997021 0.0 10151178
16:00+27юв997015 0.0 10131165
19:00+27юв99705 0.0 10141058
22:00+27юв910723 0.0 10161119
25 июля, вс
вс2501:00+27юв10107110 0.0 10151188
04:00+26юв1010737 0.1 10131134
07:00+26юв9107319 0.1 10141130
10:00+27юв910761 0.3 10151026
13:00+27юв910776 0.6 1014959
16:00+27юв910753 1.1 10131037
19:00+27юв1011735 0.2 10141105
22:00+27юв10117265 0.3 10151268
26 июля, пн
пн2601:00+27вюв9106871 0.0 10141301
04:00+27юв910724 0.0 10131120
07:00+27юв910752 0.1 10141034
10:00+27вюв910720 0.3 10161111
13:00+27юв99720 0.0 10141164
16:00+27юв89760 0.0 10131009
19:00+27юв910760 0.0 10141022
22:00+27юв89760 0.1 1015987
27 июля, вт
вт2701:00+27юв78796 0.1 1014867
04:00+26вюв787920 0.4 1013787
07:00+27вюв787914 0.4 1014797
10:00+27вюв787915 0.7 1015818
13:00+27вюв787918 0.9 1014805
16:00+27вюв67795 1.6 1012753
19:00+27вюв787924 1.1 1014793
22:00+27вюв788011 2.2 1014780
28 июля, ср
ср2801:00+26вюв788016 0.8 1013810
04:00+26в788110 1.7 1012773
07:00+26в688012 1.7 1013752
10:00+27в787912 2.7 1014814
13:00+27в787921 1.1 1013771
16:00+26в788135 2.4 1011753
19:00+27вюв788122 0.9 1013783
22:00+26вюв898017 3.4 1015753